owner,sensor,date,latitude,longitude,vertical_datum,mass_concentration_of_oxygen_in_sea_water,qcFlag 
NERRS,ioos:station:NOAA.NERRS:wkbfrwq:1,2017-03-01T00:45:00Z,30.4162,-87.8228,2.1,7.9,1111122 
NERRS,ioos:station:NOAA.NERRS:wkbfrwq:1,2017-03-01T01:45:00Z,30.4162,-87.8228,2.14,4.7,1111122 
NERRS,ioos:station:NOAA.NERRS:wkbfrwq:1,2017-03-01T02:45:00Z,30.4162,-87.8228,2.19,8.3,1111122 
NERRS,ioos:station:NOAA.NERRS:wkbfrwq:1,2017-03-01T03:45:00Z,30.4162,-87.8228,2.24,7.0,1111122 
NERRS,ioos:station:NOAA.NERRS:wkbfrwq:1,2017-03-01T04:45:00Z,30.4162,-87.8228,2.28,8.1,1111122 
NERRS,ioos:station:NOAA.NERRS:wkbfrwq:1,2017-03-01T05:45:00Z,30.4162,-87.8228,2.32,8.5,1111122 
NERRS,ioos:station:NOAA.NERRS:wkbfrwq:1,2017-03-01T06:45:00Z,30.4162,-87.8228,2.36,8.5,1111122 
NERRS,ioos:station:NOAA.NERRS:wkbfrwq:1,2017-03-01T07:45:00Z,30.4162,-87.8228,2.36,8.7,1111122 
NERRS,ioos:station:NOAA.NERRS:wkbfrwq:1,2017-03-01T08:45:00Z,30.4162,-87.8228,2.36,7.2,1111122 
NERRS,ioos:station:NOAA.NERRS:wkbfrwq:1,2017-03-01T09:45:00Z,30.4162,-87.8228,2.36,7.6,1111122 
NERRS,ioos:station:NOAA.NERRS:wkbfrwq:1,2017-03-01T10:45:00Z,30.4162,-87.8228,2.34,7.8,1111122 
NERRS,ioos:station:NOAA.NERRS:wkbfrwq:1,2017-03-01T11:45:00Z,30.4162,-87.8228,2.31,7.8,1111122 
NERRS,ioos:station:NOAA.NERRS:wkbfrwq:1,2017-03-01T12:45:00Z,30.4162,-87.8228,2.28,5.2,1111122 
NERRS,ioos:station:NOAA.NERRS:wkbfrwq:1,2017-03-01T13:45:00Z,30.4162,-87.8228,2.29,5.2,1111122 
NERRS,ioos:station:NOAA.NERRS:wkbfrwq:1,2017-03-01T14:45:00Z,30.4162,-87.8228,2.29,7.2,1111122 
NERRS,ioos:station:NOAA.NERRS:wkbfrwq:1,2017-03-01T15:45:00Z,30.4162,-87.8228,2.25,5.9,1111122 
NERRS,ioos:station:NOAA.NERRS:wkbfrwq:1,2017-03-01T16:45:00Z,30.4162,-87.8228,2.21,6.2,1111122 
NERRS,ioos:station:NOAA.NERRS:wkbfrwq:1,2017-03-01T17:45:00Z,30.4162,-87.8228,2.18,4.6,1111122 
NERRS,ioos:station:NOAA.NERRS:wkbfrwq:1,2017-03-01T18:45:00Z,30.4162,-87.8228,2.21,5.3,1111122 
NERRS,ioos:station:NOAA.NERRS:wkbfrwq:1,2017-03-01T19:45:00Z,30.4162,-87.8228,2.22,5.5,1111122 
NERRS,ioos:station:NOAA.NERRS:wkbfrwq:1,2017-03-01T20:45:00Z,30.4162,-87.8228,2.19,6.9,1111122 
NERRS,ioos:station:NOAA.NERRS:wkbfrwq:1,2017-03-01T21:45:00Z,30.4162,-87.8228,2.18,4.2,1111122 
NERRS,ioos:station:NOAA.NERRS:wkbfrwq:1,2017-03-01T23:45:00Z,30.4162,-87.8228,2.17,7.7,1111122 
NERRS,ioos:station:NOAA.NERRS:wkbfrwq:1,2017-03-02T00:45:00Z,30.4162,-87.8228,2.14,6.3,1111122 
NERRS,ioos:station:NOAA.NERRS:wkbfrwq:1,2017-03-02T01:45:00Z,30.4162,-87.8228,2.13,6.2,1111122 
NERRS,ioos:station:NOAA.NERRS:wkbfrwq:1,2017-03-02T02:45:00Z,30.4162,-87.8228,2.14,6.0,1111122 
NERRS,ioos:station:NOAA.NERRS:wkbfrwq:1,2017-03-02T03:45:00Z,30.4162,-87.8228,2.17,7.5,1111122 
NERRS,ioos:station:NOAA.NERRS:wkbfrwq:1,2017-03-02T04:45:00Z,30.4162,-87.8228,2.14,9.6,1111122 
NERRS,ioos:station:NOAA.NERRS:wkbfrwq:1,2017-03-02T05:45:00Z,30.4162,-87.8228,2.21,1.6,1111122 
NERRS,ioos:station:NOAA.NERRS:wkbfrwq:1,2017-03-02T06:45:00Z,30.4162,-87.8228,2.15,8.4,1111122 
NERRS,ioos:station:NOAA.NERRS:wkbfrwq:1,2017-03-02T07:45:00Z,30.4162,-87.8228,2.02,8.3,1111122 
NERRS,ioos:station:NOAA.NERRS:wkbfrwq:1,2017-03-02T08:45:00Z,30.4162,-87.8228,1.94,7.9,1111122 
NERRS,ioos:station:NOAA.NERRS:wkbfrwq:1,2017-03-02T09:45:00Z,30.4162,-87.8228,1.95,6.5,1111122 
NERRS,ioos:station:NOAA.NERRS:wkbfrwq:1,2017-03-02T10:45:00Z,30.4162,-87.8228,1.96,7.1,1111122 
NERRS,ioos:station:NOAA.NERRS:wkbfrwq:1,2017-03-02T11:45:00Z,30.4162,-87.8228,1.9,7.5,1111122 
NERRS,ioos:station:NOAA.NERRS:wkbfrwq:1,2017-03-02T12:45:00Z,30.4162,-87.8228,1.84,7.0,1111122 
NERRS,ioos:station:NOAA.NERRS:wkbfrwq:1,2017-03-02T14:45:00Z,30.4162,-87.8228,1.83,6.5,1111122 
NERRS,ioos:station:NOAA.NERRS:wkbfrwq:1,2017-03-02T15:45:00Z,30.4162,-87.8228,1.84,7.0,1111122 
NERRS,ioos:station:NOAA.NERRS:wkbfrwq:1,2017-03-02T16:45:00Z,30.4162,-87.8228,1.87,7.0,1111122 
NERRS,ioos:station:NOAA.NERRS:wkbfrwq:1,2017-03-02T17:45:00Z,30.4162,-87.8228,1.93,6.9,1111122 
NERRS,ioos:station:NOAA.NERRS:wkbfrwq:1,2017-03-02T18:45:00Z,30.4162,-87.8228,2.03,9.5,1111122 
NERRS,ioos:station:NOAA.NERRS:wkbfrwq:1,2017-03-02T19:45:00Z,30.4162,-87.8228,2.08,10.0,1111122 
NERRS,ioos:station:NOAA.NERRS:wkbfrwq:1,2017-03-02T20:45:00Z,30.4162,-87.8228,2.11,10.0,1111122 
NERRS,ioos:station:NOAA.NERRS:wkbfrwq:1,2017-03-02T21:45:00Z,30.4162,-87.8228,2.11,10.4,1111122 
NERRS,ioos:station:NOAA.NERRS:wkbfrwq:1,2017-03-02T22:45:00Z,30.4162,-87.8228,2.14,10.5,1111122 
NERRS,ioos:station:NOAA.NERRS:wkbfrwq:1,2017-03-02T23:45:00Z,30.4162,-87.8228,2.11,9.7,1111122 
NERRS,ioos:station:NOAA.NERRS:wkbfrwq:1,2017-03-03T00:45:00Z,30.4162,-87.8228,2.06,9.1,1111122 
NERRS,ioos:station:NOAA.NERRS:wkbfrwq:1,2017-03-03T03:45:00Z,30.4162,-87.8228,1.95,8.1,1111122 
NERRS,ioos:station:NOAA.NERRS:wkbfrwq:1,2017-03-03T04:45:00Z,30.4162,-87.8228,1.93,8.1,1111122 
NERRS,ioos:station:NOAA.NERRS:wkbfrwq:1,2017-03-03T05:45:00Z,30.4162,-87.8228,1.94,8.9,1111122 
NERRS,ioos:station:NOAA.NERRS:wkbfrwq:1,2017-03-03T06:45:00Z,30.4162,-87.8228,1.94,7.9,1111122 
NERRS,ioos:station:NOAA.NERRS:wkbfrwq:1,2017-03-03T08:45:00Z,30.4162,-87.8228,1.86,8.0,1111122 
NERRS,ioos:station:NOAA.NERRS:wkbfrwq:1,2017-03-03T09:45:00Z,30.4162,-87.8228,1.89,8.1,1111122 
NERRS,ioos:station:NOAA.NERRS:wkbfrwq:1,2017-03-03T10:45:00Z,30.4162,-87.8228,1.96,8.0,1111122 
NERRS,ioos:station:NOAA.NERRS:wkbfrwq:1,2017-03-03T11:45:00Z,30.4162,-87.8228,1.97,7.4,1111122 
NERRS,ioos:station:NOAA.NERRS:wkbfrwq:1,2017-03-03T12:45:00Z,30.4162,-87.8228,1.95,7.7,1111122 
NERRS,ioos:station:NOAA.NERRS:wkbfrwq:1,2017-03-03T13:45:00Z,30.4162,-87.8228,1.93,7.3,1111122 
NERRS,ioos:station:NOAA.NERRS:wkbfrwq:1,2017-03-03T15:45:00Z,30.4162,-87.8228,2.01,7.8,1111122 
NERRS,ioos:station:NOAA.NERRS:wkbfrwq:1,2017-03-03T16:45:00Z,30.4162,-87.8228,2.08,8.4,1111122 
NERRS,ioos:station:NOAA.NERRS:wkbfrwq:1,2017-03-03T18:45:00Z,30.4162,-87.8228,2.18,9.9,1111122 
NERRS,ioos:station:NOAA.NERRS:wkbfrwq:1,2017-03-03T19:45:00Z,30.4162,-87.8228,2.23,10.9,1111122 
NERRS,ioos:station:NOAA.NERRS:wkbfrwq:1,2017-03-03T20:45:00Z,30.4162,-87.8228,2.24,10.9,1111122 
NERRS,ioos:station:NOAA.NERRS:wkbfrwq:1,2017-03-03T21:45:00Z,30.4162,-87.8228,2.21,10.8,1111122 
NERRS,ioos:station:NOAA.NERRS:wkbfrwq:1,2017-03-03T23:45:00Z,30.4162,-87.8228,2.18,10.8,1111122 
NERRS,ioos:station:NOAA.NERRS:wkbfrwq:1,2017-03-04T02:45:00Z,30.4162,-87.8228,2.04,9.5,1111122 
NERRS,ioos:station:NOAA.NERRS:wkbfrwq:1,2017-03-04T05:45:00Z,30.4162,-87.8228,1.93,9.0,1111122 
NERRS,ioos:station:NOAA.NERRS:wkbfrwq:1,2017-03-04T06:45:00Z,30.4162,-87.8228,1.92,9.1,1111122 
NERRS,ioos:station:NOAA.NERRS:wkbfrwq:1,2017-03-04T07:45:00Z,30.4162,-87.8228,1.89,9.1,1111122 
NERRS,ioos:station:NOAA.NERRS:wkbfrwq:1,2017-03-04T08:45:00Z,30.4162,-87.8228,1.87,9.2,1111122 
NERRS,ioos:station:NOAA.NERRS:wkbfrwq:1,2017-03-04T09:45:00Z,30.4162,-87.8228,1.85,8.7,1111122 
NERRS,ioos:station:NOAA.NERRS:wkbfrwq:1,2017-03-04T10:45:00Z,30.4162,-87.8228,1.85,9.1,1111122 
NERRS,ioos:station:NOAA.NERRS:wkbfrwq:1,2017-03-04T11:45:00Z,30.4162,-87.8228,1.88,9.2,1111122 
NERRS,ioos:station:NOAA.NERRS:wkbfrwq:1,2017-03-04T12:45:00Z,30.4162,-87.8228,1.93,8.2,1111122 
NERRS,ioos:station:NOAA.NERRS:wkbfrwq:1,2017-03-04T13:45:00Z,30.4162,-87.8228,1.97,8.3,1111122 
NERRS,ioos:station:NOAA.NERRS:wkbfrwq:1,2017-03-04T14:45:00Z,30.4162,-87.8228,2.0,7.8,1111122 
NERRS,ioos:station:NOAA.NERRS:wkbfrwq:1,2017-03-04T15:45:00Z,30.4162,-87.8228,2.06,7.9,1111122 
NERRS,ioos:station:NOAA.NERRS:wkbfrwq:1,2017-03-04T16:45:00Z,30.4162,-87.8228,2.12,9.0,1111122 
NERRS,ioos:station:NOAA.NERRS:wkbfrwq:1,2017-03-04T17:45:00Z,30.4162,-87.8228,2.18,9.4,1111122 
NERRS,ioos:station:NOAA.NERRS:wkbfrwq:1,2017-03-04T18:45:00Z,30.4162,-87.8228,2.23,10.0,1111122 
NERRS,ioos:station:NOAA.NERRS:wkbfrwq:1,2017-03-04T19:45:00Z,30.4162,-87.8228,2.26,10.8,1111122 
NERRS,ioos:station:NOAA.NERRS:wkbfrwq:1,2017-03-04T20:45:00Z,30.4162,-87.8228,2.27,11.2,1111122 
NERRS,ioos:station:NOAA.NERRS:wkbfrwq:1,2017-03-04T21:45:00Z,30.4162,-87.8228,2.24,10.3,1111122 
NERRS,ioos:station:NOAA.NERRS:wkbfrwq:1,2017-03-04T22:45:00Z,30.4162,-87.8228,2.25,10.9,1111122 
NERRS,ioos:station:NOAA.NERRS:wkbfrwq:1,2017-03-04T23:45:00Z,30.4162,-87.8228,2.28,11.4,1111122 
NERRS,ioos:station:NOAA.NERRS:wkbfrwq:1,2017-03-05T00:45:00Z,30.4162,-87.8228,2.25,11.3,1111122 
NERRS,ioos:station:NOAA.NERRS:wkbfrwq:1,2017-03-05T01:45:00Z,30.4162,-87.8228,2.18,10.6,1111122 
NERRS,ioos:station:NOAA.NERRS:wkbfrwq:1,2017-03-05T02:45:00Z,30.4162,-87.8228,2.12,10.2,1111122 
NERRS,ioos:station:NOAA.NERRS:wkbfrwq:1,2017-03-05T03:45:00Z,30.4162,-87.8228,2.08,10.0,1111122 
NERRS,ioos:station:NOAA.NERRS:wkbfrwq:1,2017-03-05T04:45:00Z,30.4162,-87.8228,2.05,9.5,1111122 
NERRS,ioos:station:NOAA.NERRS:wkbfrwq:1,2017-03-05T05:45:00Z,30.4162,-87.8228,1.98,9.8,1111122 
NERRS,ioos:station:NOAA.NERRS:wkbfrwq:1,2017-03-05T06:45:00Z,30.4162,-87.8228,1.92,9.3,1111122 
NERRS,ioos:station:NOAA.NERRS:wkbfrwq:1,2017-03-05T07:45:00Z,30.4162,-87.8228,1.86,8.7,1111122 
NERRS,ioos:station:NOAA.NERRS:wkbfrwq:1,2017-03-05T08:45:00Z,30.4162,-87.8228,1.83,8.7,1111122 
NERRS,ioos:station:NOAA.NERRS:wkbfrwq:1,2017-03-05T09:45:00Z,30.4162,-87.8228,1.82,8.7,1111122 
NERRS,ioos:station:NOAA.NERRS:wkbfrwq:1,2017-03-05T10:45:00Z,30.4162,-87.8228,1.84,8.6,1111122 
NERRS,ioos:station:NOAA.NERRS:wkbfrwq:1,2017-03-05T11:45:00Z,30.4162,-87.8228,1.85,8.6,1111122 
NERRS,ioos:station:NOAA.NERRS:wkbfrwq:1,2017-03-05T12:45:00Z,30.4162,-87.8228,1.92,7.9,1111122 
NERRS,ioos:station:NOAA.NERRS:wkbfrwq:1,2017-03-05T13:45:00Z,30.4162,-87.8228,2.03,8.1,1111122 
NERRS,ioos:station:NOAA.NERRS:wkbfrwq:1,2017-03-05T14:45:00Z,30.4162,-87.8228,2.12,8.3,1111122 
NERRS,ioos:station:NOAA.NERRS:wkbfrwq:1,2017-03-05T15:45:00Z,30.4162,-87.8228,2.17,8.1,1111122 
NERRS,ioos:station:NOAA.NERRS:wkbfrwq:1,2017-03-05T16:45:00Z,30.4162,-87.8228,2.2,8.5,1111122 
NERRS,ioos:station:NOAA.NERRS:wkbfrwq:1,2017-03-05T17:45:00Z,30.4162,-87.8228,2.3,9.1,1111122 
NERRS,ioos:station:NOAA.NERRS:wkbfrwq:1,2017-03-05T18:45:00Z,30.4162,-87.8228,2.41,10.3,1111122 
NERRS,ioos:station:NOAA.NERRS:wkbfrwq:1,2017-03-05T19:45:00Z,30.4162,-87.8228,2.47,10.3,1111122 
NERRS,ioos:station:NOAA.NERRS:wkbfrwq:1,2017-03-05T20:45:00Z,30.4162,-87.8228,2.47,10.2,1111122 
NERRS,ioos:station:NOAA.NERRS:wkbfrwq:1,2017-03-05T21:45:00Z,30.4162,-87.8228,2.44,10.4,1111122 
NERRS,ioos:station:NOAA.NERRS:wkbfrwq:1,2017-03-05T22:45:00Z,30.4162,-87.8228,2.44,9.4,1111122 
NERRS,ioos:station:NOAA.NERRS:wkbfrwq:1,2017-03-05T23:45:00Z,30.4162,-87.8228,2.44,10.2,1111122 
NERRS,ioos:station:NOAA.NERRS:wkbfrwq:1,2017-03-06T00:45:00Z,30.4162,-87.8228,2.45,10.3,1111122 
NERRS,ioos:station:NOAA.NERRS:wkbfrwq:1,2017-03-06T01:45:00Z,30.4162,-87.8228,2.44,10.1,1111122 
NERRS,ioos:station:NOAA.NERRS:wkbfrwq:1,2017-03-06T02:45:00Z,30.4162,-87.8228,2.37,10.1,1111122 
NERRS,ioos:station:NOAA.NERRS:wkbfrwq:1,2017-03-06T03:45:00Z,30.4162,-87.8228,2.3,9.3,1111122 
NERRS,ioos:station:NOAA.NERRS:wkbfrwq:1,2017-03-06T04:45:00Z,30.4162,-87.8228,2.27,8.7,1111122 
NERRS,ioos:station:NOAA.NERRS:wkbfrwq:1,2017-03-06T05:45:00Z,30.4162,-87.8228,2.26,9.2,1111122 
NERRS,ioos:station:NOAA.NERRS:wkbfrwq:1,2017-03-06T06:45:00Z,30.4162,-87.8228,2.23,8.9,1111122 
NERRS,ioos:station:NOAA.NERRS:wkbfrwq:1,2017-03-06T07:45:00Z,30.4162,-87.8228,2.16,8.2,1111122 
NERRS,ioos:station:NOAA.NERRS:wkbfrwq:1,2017-03-06T08:45:00Z,30.4162,-87.8228,2.1,7.7,1111122 
NERRS,ioos:station:NOAA.NERRS:wkbfrwq:1,2017-03-06T09:45:00Z,30.4162,-87.8228,2.07,8.6,1111122 
NERRS,ioos:station:NOAA.NERRS:wkbfrwq:1,2017-03-06T10:45:00Z,30.4162,-87.8228,2.08,8.4,1111122 
NERRS,ioos:station:NOAA.NERRS:wkbfrwq:1,2017-03-06T11:45:00Z,30.4162,-87.8228,2.1,9.1,1111122 
NERRS,ioos:station:NOAA.NERRS:wkbfrwq:1,2017-03-06T12:45:00Z,30.4162,-87.8228,2.11,8.6,1111122 
NERRS,ioos:station:NOAA.NERRS:wkbfrwq:1,2017-03-06T13:45:00Z,30.4162,-87.8228,2.15,8.1,1111122 
NERRS,ioos:station:NOAA.NERRS:wkbfrwq:1,2017-03-06T14:45:00Z,30.4162,-87.8228,2.23,8.1,1111122 
NERRS,ioos:station:NOAA.NERRS:wkbfrwq:1,2017-03-06T15:45:00Z,30.4162,-87.8228,2.29,8.4,1111122 
NERRS,ioos:station:NOAA.NERRS:wkbfrwq:1,2017-03-06T16:45:00Z,30.4162,-87.8228,2.32,8.4,1111122 
NERRS,ioos:station:NOAA.NERRS:wkbfrwq:1,2017-03-06T17:45:00Z,30.4162,-87.8228,2.36,8.0,1111122 
NERRS,ioos:station:NOAA.NERRS:wkbfrwq:1,2017-03-06T18:45:00Z,30.4162,-87.8228,2.43,9.4,1111122 
NERRS,ioos:station:NOAA.NERRS:wkbfrwq:1,2017-03-06T19:45:00Z,30.4162,-87.8228,2.5,10.6,1111122 
NERRS,ioos:station:NOAA.NERRS:wkbfrwq:1,2017-03-06T20:45:00Z,30.4162,-87.8228,2.54,10.5,1111122 
NERRS,ioos:station:NOAA.NERRS:wkbfrwq:1,2017-03-06T21:45:00Z,30.4162,-87.8228,2.59,10.6,1111122 
NERRS,ioos:station:NOAA.NERRS:wkbfrwq:1,2017-03-06T22:45:00Z,30.4162,-87.8228,2.6,10.2,1111122 
NERRS,ioos:station:NOAA.NERRS:wkbfrwq:1,2017-03-06T23:45:00Z,30.4162,-87.8228,2.61,10.3,1111122 
NERRS,ioos:station:NOAA.NERRS:wkbfrwq:1,2017-03-07T00:45:00Z,30.4162,-87.8228,2.61,9.6,1111122 
NERRS,ioos:station:NOAA.NERRS:wkbfrwq:1,2017-03-07T01:45:00Z,30.4162,-87.8228,2.61,9.8,1111122 
NERRS,ioos:station:NOAA.NERRS:wkbfrwq:1,2017-03-07T02:45:00Z,30.4162,-87.8228,2.59,9.1,1111122 
NERRS,ioos:station:NOAA.NERRS:wkbfrwq:1,2017-03-07T03:45:00Z,30.4162,-87.8228,2.53,9.6,1111122 
NERRS,ioos:station:NOAA.NERRS:wkbfrwq:1,2017-03-07T04:45:00Z,30.4162,-87.8228,2.48,9.3,1111122 
NERRS,ioos:station:NOAA.NERRS:wkbfrwq:1,2017-03-07T05:45:00Z,30.4162,-87.8228,2.43,9.0,1111122 
NERRS,ioos:station:NOAA.NERRS:wkbfrwq:1,2017-03-07T06:45:00Z,30.4162,-87.8228,2.38,8.6,1111122 
NERRS,ioos:station:NOAA.NERRS:wkbfrwq:1,2017-03-07T07:45:00Z,30.4162,-87.8228,2.32,8.8,1111122 
NERRS,ioos:station:NOAA.NERRS:wkbfrwq:1,2017-03-07T08:45:00Z,30.4162,-87.8228,2.26,8.5,1111122 
NERRS,ioos:station:NOAA.NERRS:wkbfrwq:1,2017-03-07T09:45:00Z,30.4162,-87.8228,2.23,8.3,1111122 
NERRS,ioos:station:NOAA.NERRS:wkbfrwq:1,2017-03-07T10:45:00Z,30.4162,-87.8228,2.2,8.2,1111122 
NERRS,ioos:station:NOAA.NERRS:wkbfrwq:1,2017-03-07T11:45:00Z,30.4162,-87.8228,2.18,7.2,1111122 
NERRS,ioos:station:NOAA.NERRS:wkbfrwq:1,2017-03-07T12:45:00Z,30.4162,-87.8228,2.17,7.3,1111122 
NERRS,ioos:station:NOAA.NERRS:wkbfrwq:1,2017-03-07T13:45:00Z,30.4162,-87.8228,2.24,7.5,1111122 
NERRS,ioos:station:NOAA.NERRS:wkbfrwq:1,2017-03-07T14:45:00Z,30.4162,-87.8228,2.35,8.3,1111122 
NERRS,ioos:station:NOAA.NERRS:wkbfrwq:1,2017-03-07T15:45:00Z,30.4162,-87.8228,2.4,8.1,1111122 
NERRS,ioos:station:NOAA.NERRS:wkbfrwq:1,2017-03-07T16:45:00Z,30.4162,-87.8228,2.41,7.8,1111122 
NERRS,ioos:station:NOAA.NERRS:wkbfrwq:1,2017-03-07T17:45:00Z,30.4162,-87.8228,2.4,7.6,1111122 
NERRS,ioos:station:NOAA.NERRS:wkbfrwq:1,2017-03-07T18:45:00Z,30.4162,-87.8228,2.45,8.4,1111122 
NERRS,ioos:station:NOAA.NERRS:wkbfrwq:1,2017-03-07T19:45:00Z,30.4162,-87.8228,2.51,9.5,1111122 
NERRS,ioos:station:NOAA.NERRS:wkbfrwq:1,2017-03-07T20:45:00Z,30.4162,-87.8228,2.53,7.7,1111122 
NERRS,ioos:station:NOAA.NERRS:wkbfrwq:1,2017-03-07T21:45:00Z,30.4162,-87.8228,2.54,8.6,1111122 
NERRS,ioos:station:NOAA.NERRS:wkbfrwq:1,2017-03-07T23:45:00Z,30.4162,-87.8228,2.62,10.7,1111122 
NERRS,ioos:station:NOAA.NERRS:wkbfrwq:1,2017-03-08T00:45:00Z,30.4162,-87.8228,2.62,10.0,1111122 
NERRS,ioos:station:NOAA.NERRS:wkbfrwq:1,2017-03-08T01:45:00Z,30.4162,-87.8228,2.56,9.6,1111122 
NERRS,ioos:station:NOAA.NERRS:wkbfrwq:1,2017-03-08T02:45:00Z,30.4162,-87.8228,2.52,9.3,1111122 
NERRS,ioos:station:NOAA.NERRS:wkbfrwq:1,2017-03-08T03:45:00Z,30.4162,-87.8228,2.46,9.7,1111122 
NERRS,ioos:station:NOAA.NERRS:wkbfrwq:1,2017-03-08T04:45:00Z,30.4162,-87.8228,2.48,9.2,1111122 
NERRS,ioos:station:NOAA.NERRS:wkbfrwq:1,2017-03-08T06:45:00Z,30.4162,-87.8228,2.21,9.2,1111122 
NERRS,ioos:station:NOAA.NERRS:wkbfrwq:1,2017-03-08T07:45:00Z,30.4162,-87.8228,2.16,8.5,1111122 
NERRS,ioos:station:NOAA.NERRS:wkbfrwq:1,2017-03-08T08:45:00Z,30.4162,-87.8228,2.19,7.9,1111122 
NERRS,ioos:station:NOAA.NERRS:wkbfrwq:1,2017-03-08T09:45:00Z,30.4162,-87.8228,2.21,7.4,1111122 
NERRS,ioos:station:NOAA.NERRS:wkbfrwq:1,2017-03-08T10:45:00Z,30.4162,-87.8228,2.12,8.2,1111122 
NERRS,ioos:station:NOAA.NERRS:wkbfrwq:1,2017-03-08T11:45:00Z,30.4162,-87.8228,2.05,7.5,1111122 
NERRS,ioos:station:NOAA.NERRS:wkbfrwq:1,2017-03-08T12:45:00Z,30.4162,-87.8228,2.0,7.2,1111122 
NERRS,ioos:station:NOAA.NERRS:wkbfrwq:1,2017-03-08T13:45:00Z,30.4162,-87.8228,2.02,6.5,1111122 
NERRS,ioos:station:NOAA.NERRS:wkbfrwq:1,2017-03-08T14:45:00Z,30.4162,-87.8228,1.94,7.8,1111122 
NERRS,ioos:station:NOAA.NERRS:wkbfrwq:1,2017-03-08T15:45:00Z,30.4162,-87.8228,1.9,7.2,1111122 
NERRS,ioos:station:NOAA.NERRS:wkbfrwq:1,2017-03-08T16:45:00Z,30.4162,-87.8228,1.9,6.4,1111122 
NERRS,ioos:station:NOAA.NERRS:wkbfrwq:1,2017-03-08T17:45:00Z,30.4162,-87.8228,2.0,8.3,1111122 
NERRS,ioos:station:NOAA.NERRS:wkbfrwq:1,2017-03-08T18:45:00Z,30.4162,-87.8228,2.11,9.6,1111122 
NERRS,ioos:station:NOAA.NERRS:wkbfrwq:1,2017-03-08T20:45:00Z,30.4162,-87.8228,2.26,11.0,1111122 
NERRS,ioos:station:NOAA.NERRS:wkbfrwq:1,2017-03-08T21:45:00Z,30.4162,-87.8228,2.31,11.7,1111122 
NERRS,ioos:station:NOAA.NERRS:wkbfrwq:1,2017-03-08T22:45:00Z,30.4162,-87.8228,2.39,12.1,1111122 
NERRS,ioos:station:NOAA.NERRS:wkbfrwq:1,2017-03-08T23:45:00Z,30.4162,-87.8228,2.44,12.5,1111122 
NERRS,ioos:station:NOAA.NERRS:wkbfrwq:1,2017-03-09T00:45:00Z,30.4162,-87.8228,2.46,11.9,1111122 
NERRS,ioos:station:NOAA.NERRS:wkbfrwq:1,2017-03-09T01:45:00Z,30.4162,-87.8228,2.47,11.8,1111122 
NERRS,ioos:station:NOAA.NERRS:wkbfrwq:1,2017-03-09T02:45:00Z,30.4162,-87.8228,2.48,11.7,1111122 
NERRS,ioos:station:NOAA.NERRS:wkbfrwq:1,2017-03-09T03:45:00Z,30.4162,-87.8228,2.47,10.7,1111122 
NERRS,ioos:station:NOAA.NERRS:wkbfrwq:1,2017-03-09T04:45:00Z,30.4162,-87.8228,2.42,10.5,1111122 
NERRS,ioos:station:NOAA.NERRS:wkbfrwq:1,2017-03-09T06:45:00Z,30.4162,-87.8228,2.26,9.6,1111122 
NERRS,ioos:station:NOAA.NERRS:wkbfrwq:1,2017-03-09T09:45:00Z,30.4162,-87.8228,2.05,8.4,1111122 
NERRS,ioos:station:NOAA.NERRS:wkbfrwq:1,2017-03-09T10:45:00Z,30.4162,-87.8228,2.01,8.0,1111122 
NERRS,ioos:station:NOAA.NERRS:wkbfrwq:1,2017-03-09T11:45:00Z,30.4162,-87.8228,1.97,7.4,1111122 
NERRS,ioos:station:NOAA.NERRS:wkbfrwq:1,2017-03-09T12:45:00Z,30.4162,-87.8228,1.93,7.2,1111122 
NERRS,ioos:station:NOAA.NERRS:wkbfrwq:1,2017-03-09T13:45:00Z,30.4162,-87.8228,1.91,6.6,1111122 
NERRS,ioos:station:NOAA.NERRS:wkbfrwq:1,2017-03-09T14:45:00Z,30.4162,-87.8228,1.93,6.0,1111122 
NERRS,ioos:station:NOAA.NERRS:wkbfrwq:1,2017-03-09T15:45:00Z,30.4162,-87.8228,1.98,7.0,1111122 
NERRS,ioos:station:NOAA.NERRS:wkbfrwq:1,2017-03-09T16:45:00Z,30.4162,-87.8228,2.05,9.0,1111122 
NERRS,ioos:station:NOAA.NERRS:wkbfrwq:1,2017-03-09T17:45:00Z,30.4162,-87.8228,2.09,9.3,1111122 
NERRS,ioos:station:NOAA.NERRS:wkbfrwq:1,2017-03-09T18:45:00Z,30.4162,-87.8228,2.12,9.2,1111122 
NERRS,ioos:station:NOAA.NERRS:wkbfrwq:1,2017-03-09T19:45:00Z,30.4162,-87.8228,2.15,9.9,1111122 
NERRS,ioos:station:NOAA.NERRS:wkbfrwq:1,2017-03-09T20:45:00Z,30.4162,-87.8228,2.17,9.9,1111122 
NERRS,ioos:station:NOAA.NERRS:wkbfrwq:1,2017-03-09T21:45:00Z,30.4162,-87.8228,2.2,9.2,1111122 
NERRS,ioos:station:NOAA.NERRS:wkbfrwq:1,2017-03-09T22:45:00Z,30.4162,-87.8228,2.25,11.0,1111122 
NERRS,ioos:station:NOAA.NERRS:wkbfrwq:1,2017-03-09T23:45:00Z,30.4162,-87.8228,2.32,12.3,1111122 
NERRS,ioos:station:NOAA.NERRS:wkbfrwq:1,2017-03-10T00:45:00Z,30.4162,-87.8228,2.37,12.3,1111122 
NERRS,ioos:station:NOAA.NERRS:wkbfrwq:1,2017-03-10T01:45:00Z,30.4162,-87.8228,2.42,12.2,1111122 
NERRS,ioos:station:NOAA.NERRS:wkbfrwq:1,2017-03-10T02:45:00Z,30.4162,-87.8228,2.44,11.2,1111122 
NERRS,ioos:station:NOAA.NERRS:wkbfrwq:1,2017-03-10T04:45:00Z,30.4162,-87.8228,2.41,10.5,1111122 
NERRS,ioos:station:NOAA.NERRS:wkbfrwq:1,2017-03-10T06:45:00Z,30.4162,-87.8228,2.31,9.6,1111122 
NERRS,ioos:station:NOAA.NERRS:wkbfrwq:1,2017-03-10T07:45:00Z,30.4162,-87.8228,2.24,9.7,1111122 
NERRS,ioos:station:NOAA.NERRS:wkbfrwq:1,2017-03-10T08:45:00Z,30.4162,-87.8228,2.15,9.9,1111122 
NERRS,ioos:station:NOAA.NERRS:wkbfrwq:1,2017-03-10T09:45:00Z,30.4162,-87.8228,2.09,8.8,1111122 
NERRS,ioos:station:NOAA.NERRS:wkbfrwq:1,2017-03-10T10:45:00Z,30.4162,-87.8228,2.05,9.0,1111122 
NERRS,ioos:station:NOAA.NERRS:wkbfrwq:1,2017-03-10T11:45:00Z,30.4162,-87.8228,1.98,8.1,1111122 
NERRS,ioos:station:NOAA.NERRS:wkbfrwq:1,2017-03-10T12:45:00Z,30.4162,-87.8228,1.94,7.5,1111122 
NERRS,ioos:station:NOAA.NERRS:wkbfrwq:1,2017-03-10T13:45:00Z,30.4162,-87.8228,1.92,6.7,1111122 
NERRS,ioos:station:NOAA.NERRS:wkbfrwq:1,2017-03-10T14:45:00Z,30.4162,-87.8228,1.9,6.2,1111122 
NERRS,ioos:station:NOAA.NERRS:wkbfrwq:1,2017-03-10T15:45:00Z,30.4162,-87.8228,1.91,6.2,1111122 
NERRS,ioos:station:NOAA.NERRS:wkbfrwq:1,2017-03-10T16:45:00Z,30.4162,-87.8228,1.97,7.7,1111122 
NERRS,ioos:station:NOAA.NERRS:wkbfrwq:1,2017-03-10T17:45:00Z,30.4162,-87.8228,1.99,8.7,1111122 
NERRS,ioos:station:NOAA.NERRS:wkbfrwq:1,2017-03-10T18:45:00Z,30.4162,-87.8228,2.01,8.8,1111122 
NERRS,ioos:station:NOAA.NERRS:wkbfrwq:1,2017-03-10T19:45:00Z,30.4162,-87.8228,2.05,9.9,1111122 
NERRS,ioos:station:NOAA.NERRS:wkbfrwq:1,2017-03-10T20:45:00Z,30.4162,-87.8228,2.09,11.1,1111122 
NERRS,ioos:station:NOAA.NERRS:wkbfrwq:1,2017-03-10T21:45:00Z,30.4162,-87.8228,2.14,11.5,1111122 
NERRS,ioos:station:NOAA.NERRS:wkbfrwq:1,2017-03-10T22:45:00Z,30.4162,-87.8228,2.15,11.5,1111122 
NERRS,ioos:station:NOAA.NERRS:wkbfrwq:1,2017-03-10T23:45:00Z,30.4162,-87.8228,2.19,11.8,1111122 
NERRS,ioos:station:NOAA.NERRS:wkbfrwq:1,2017-03-11T00:45:00Z,30.4162,-87.8228,2.24,11.7,1111122 
NERRS,ioos:station:NOAA.NERRS:wkbfrwq:1,2017-03-11T01:45:00Z,30.4162,-87.8228,2.28,11.7,1111122 
NERRS,ioos:station:NOAA.NERRS:wkbfrwq:1,2017-03-11T03:45:00Z,30.4162,-87.8228,2.24,10.9,1111122 
NERRS,ioos:station:NOAA.NERRS:wkbfrwq:1,2017-03-11T04:45:00Z,30.4162,-87.8228,2.19,10.2,1111122 
NERRS,ioos:station:NOAA.NERRS:wkbfrwq:1,2017-03-11T05:45:00Z,30.4162,-87.8228,2.17,10.2,1111122 
NERRS,ioos:station:NOAA.NERRS:wkbfrwq:1,2017-03-11T06:45:00Z,30.4162,-87.8228,2.14,9.7,1111122 
NERRS,ioos:station:NOAA.NERRS:wkbfrwq:1,2017-03-11T07:45:00Z,30.4162,-87.8228,2.1,9.2,1111122 
NERRS,ioos:station:NOAA.NERRS:wkbfrwq:1,2017-03-11T08:45:00Z,30.4162,-87.8228,2.04,9.3,1111122 
NERRS,ioos:station:NOAA.NERRS:wkbfrwq:1,2017-03-11T09:45:00Z,30.4162,-87.8228,1.98,8.9,1111122 
NERRS,ioos:station:NOAA.NERRS:wkbfrwq:1,2017-03-11T10:45:00Z,30.4162,-87.8228,1.91,8.6,1111122 
NERRS,ioos:station:NOAA.NERRS:wkbfrwq:1,2017-03-11T11:45:00Z,30.4162,-87.8228,1.85,8.3,1111122 
NERRS,ioos:station:NOAA.NERRS:wkbfrwq:1,2017-03-11T13:45:00Z,30.4162,-87.8228,1.8,6.8,1111122 
NERRS,ioos:station:NOAA.NERRS:wkbfrwq:1,2017-03-11T14:45:00Z,30.4162,-87.8228,1.79,5.9,1111122 
NERRS,ioos:station:NOAA.NERRS:wkbfrwq:1,2017-03-11T15:45:00Z,30.4162,-87.8228,1.83,6.0,1111122 
NERRS,ioos:station:NOAA.NERRS:wkbfrwq:1,2017-03-11T16:45:00Z,30.4162,-87.8228,1.9,7.9,1111122 
NERRS,ioos:station:NOAA.NERRS:wkbfrwq:1,2017-03-11T17:45:00Z,30.4162,-87.8228,2.0,10.0,1111122 
NERRS,ioos:station:NOAA.NERRS:wkbfrwq:1,2017-03-11T18:45:00Z,30.4162,-87.8228,2.06,10.5,1111122 
NERRS,ioos:station:NOAA.NERRS:wkbfrwq:1,2017-03-11T19:45:00Z,30.4162,-87.8228,2.08,9.9,1111122 
NERRS,ioos:station:NOAA.NERRS:wkbfrwq:1,2017-03-11T20:45:00Z,30.4162,-87.8228,2.07,9.2,1111122 
NERRS,ioos:station:NOAA.NERRS:wkbfrwq:1,2017-03-11T21:45:00Z,30.4162,-87.8228,2.1,11.7,1111122 
NERRS,ioos:station:NOAA.NERRS:wkbfrwq:1,2017-03-11T22:45:00Z,30.4162,-87.8228,2.16,12.0,1111122 
NERRS,ioos:station:NOAA.NERRS:wkbfrwq:1,2017-03-11T23:45:00Z,30.4162,-87.8228,2.21,12.6,1111122 
NERRS,ioos:station:NOAA.NERRS:wkbfrwq:1,2017-03-12T00:45:00Z,30.4162,-87.8228,2.25,12.7,1111122 
NERRS,ioos:station:NOAA.NERRS:wkbfrwq:1,2017-03-12T01:45:00Z,30.4162,-87.8228,2.27,12.4,1111122 
NERRS,ioos:station:NOAA.NERRS:wkbfrwq:1,2017-03-12T02:45:00Z,30.4162,-87.8228,2.3,12.4,1111122 
NERRS,ioos:station:NOAA.NERRS:wkbfrwq:1,2017-03-12T03:45:00Z,30.4162,-87.8228,2.31,12.2,1111122 
NERRS,ioos:station:NOAA.NERRS:wkbfrwq:1,2017-03-12T04:45:00Z,30.4162,-87.8228,2.29,11.2,1111122 
NERRS,ioos:station:NOAA.NERRS:wkbfrwq:1,2017-03-12T05:45:00Z,30.4162,-87.8228,2.27,10.2,1111122 